CAPE
0 0 0 0 0 0 0 0 0 0 0 0 0 0 0 0 0 0 0 0 0 0 0 0 0 0 0 0 0 0 0 0 0 0 0 0 0 0 0 0 0 0 2 0 0
0 0 0 0 0 0 0 0 0 0 0 0 0 0 0 0 0 0 0 0 0 0 0 0 0 0 0 0 0 0 0 0 0 0 0 0 0 0 0 0 0 0 0 0 0
0 0 0 0 0 0 0 0 0 0 0 0 0 0 0 0 0 0 0 0 0 0 0 0 0 0 0 0 0 0 0 0 0 0 0 0 0 0 0 0 0 0 0 0 0
0 0 0 0 0 0 0 0 0 0 0 0 0 0 0 0 0 0 0 0 0 0 0 0 0 0 0 0 0 0 0 0 0 0 0 0 0 0 0 0 0 0 0 0 0
0 0 0 0 0 0 0 0 0 0 0 0 0 0 0 0 0 0 0 0 0 0 0 0 0 0 0 0 0 0 0 0 0 0 0 0 0 0 0 0 0 0 0 0 0
0 0 0 0 0 0 0 0 0 0 0 0 0 0 0 0 0 0 0 0 0 0 0 0 0 0 0 0 0 0 0 0 0 0 0 0 0 0 0 0 0 0 0 0 0
2 1 0 0 0 0 0 0 0 0 0 0 0 0 3 0 0 0 0 0 0 0 0 0 0 0 0 0 0 0 0 0 0 0 0 0 0 0 0 0 0 0 0 0 0
2 0 1 2 0 0 0 0 0 0 0 0 0 1 0 0 0 0 0 0 0 0 0 0 0 0 0 0 0 0 0 0 0 0 0 0 0 0 0 0 0 0 0 0 0
0 0 0 0 0 0 0 0 0 0 0 0 1 1 0 0 0 0 0 0 0 0 0 0 0 0 0 0 0 0 0 0 0 0 0 0 0 0 0 0 0 0 0 0 0
0 0 0 0 0 0 0 0 0 1 0 1 2 3 0 0 0 0 0 0 0 0 0 0 0 0 0 0 0 0 0 0 0 0 0 0 0 0 0 0 0 0 0 0 0
0 0 1 0 0 0 0 0 0 1 1 0 0 0 0 0 0 0 0 0 0 0 0 0 0 0 0 0 0 0 0 0 0 0 0 0 0 0 0 0 0 0 0 0 0
0 0 3 20 26 1 0 0 0 0 1 0 0 0 0 0 0 0 0 0 0 0 0 0 0 0 0 0 0 0 0 0 0 0 0 0 0 0 0 0 0 0 0 0 0
0 0 0 10 29 11 0 0 0 1 1 0 0 0 0 0 0 0 0 0 0 0 0 0 0 0 0 0 0 0 0 0 0 0 0 0 0 0 0 0 0 0 0 0 0
0 0 0 0 1 0 0 17 20 0 1 0 0 0 0 0 0 0 0 0 0 0 0 0 0 0 0 0 0 0 0 0 0 0 0 0 0 0 0 0 0 0 0 0 0
3 0 1 12 3 2 1 23 23 13 0 0 0 0 0 0 0 0 0 0 0 0 0 0 0 0 0 0 0 0 0 0 0 0 0 0 0 0 0 0 0 0 0 0 0
9 10 27 4 0 1 5 32 8 8 0 0 0 0 0 0 0 0 0 7 0 0 0 0 0 0 0 0 0 0 0 0 0 0 0 0 0 0 0 0 0 0 0 0 0
24 24 30 20 2 10 1 28 9 2 0 0 0 0 0 0 0 0 0 1 1 6 0 0 0 0 0 0 0 0 0 0 0 0 0 0 0 0 0 0 0 0 0 0 0
18 30 14 7 14 28 1 1 0 0 0 0 0 0 16 6 0 10 21 0 1 0 1 0 0 0 0 0 0 0 0 0 0 0 0 0 0 0 0 0 0 0 0 0 0
0 8 8 0 7 3 0 0 0 0 0 0 1 20 15 31 32 57 31 16 2 0 21 21 10 0 0 0 7 0 0 0 0 0 0 0 0 0 0 0 0 0 0 0 0
0 5 3 8 9 26 1 0 0 0 0 0 0 0 0 1 48 51 23 10 20 9 44 13 8 0 0 0 0 0 0 0 0 0 0 0 0 0 0 0 0 0 0 0 0
0 4 0 18 40 34 9 0 0 0 0 0 0 2 0 0 0 36 13 5 19 30 11 11 0 0 0 0 0 0 1 0 0 0 0 0 0 0 0 0 0 0 0 0 0
9 2 3 51 28 0 4 0 0 0 1 1 0 0 0 0 0 0 20 7 0 0 15 0 2 0 0 0 0 0 0 0 0 0 0 0 0 0 0 0 0 0 0 0 0
0 1 5 55 9 0 0 0 0 0 1 0 4 3 0 0 0 0 0 0 0 0 0 0 0 0 0 0 0 0 0 0 0 0 0 0 0 0 0 0 0 0 0 0 0
0 0 0 14 4 0 9 0 0 0 0 9 4 7 1 2 4 0 0 0 0 0 0 0 0 0 0 0 0 0 0 0 0 0 0 0 0 0 0 0 0 0 0 0 0
0 0 4 9 0 4 1 0 0 1 0 0 3 3 6 8 5 3 0 0 0 0 0 0 0 0 0 0 0 0 0 0 0 0 0 0 0 0 0 0 0 0 0 0 0
0 0 0 0 0 3 0 0 0 0 0 1 3 0 2 29 0 0 0 0 0 0 0 0 0 0 0 0 0 0 0 0 0 0 0 0 0 0 0 0 0 0 0 0 0
0 0 0 0 0 0 1 3 1 0 0 0 0 0 11 0 0 0 0 0 1 0 0 0 0 0 0 0 0 0 0 0 0 0 0 0 0 0 0 0 0 0 0 0 0
CIN
0 0 0 0 0 0 0 0 0 0 0 0 0 0 0 0 0 0 0 0 0 0 0 0 0 0 0 0 0 0 0 0 0 0 0 0 0 0 0 0 0 0 -376 0 0
0 0 0 0 0 0 0 0 0 0 0 0 0 0 0 0 0 0 0 0 0 0 0 0 0 0 0 0 0 0 0 0 0 0 0 0 0 0 0 0 0 0 0 0 0
0 0 0 0 0 0 0 0 0 0 0 0 0 0 0 0 0 0 0 0 0 0 0 0 0 0 0 0 0 0 0 0 0 0 0 0 0 0 0 0 0 0 0 0 0
0 0 0 0 0 0 0 0 0 0 0 0 0 0 0 0 0 0 0 0 0 0 0 0 0 0 0 0 0 0 0 0 0 0 0 0 0 0 0 0 0 0 0 0 0
0 0 0 0 0 0 0 0 0 0 0 0 0 0 0 0 0 0 0 0 0 0 0 0 0 0 0 0 0 0 0 0 0 0 0 0 0 0 0 0 0 0 0 0 0
0 0 0 0 0 0 0 0 0 0 0 0 0 0 0 0 0 0 0 0 0 0 0 0 0 0 0 0 0 0 0 0 0 0 0 0 0 0 0 0 0 0 0 0 0
0 0 0 0 0 0 0 0 0 -1 0 0 0 0 0 0 0 0 0 0 0 0 0 0 0 0 0 0 0 0 0 0 0 0 0 0 0 0 0 0 0 0 0 0 0
0 0 0 0 0 0 0 0 0 0 0 0 0 0 0 0 0 0 0 0 0 0 0 0 0 0 0 0 0 0 0 0 0 0 0 0 0 0 0 0 0 0 0 0 0
0 0 0 0 0 0 0 0 0 0 0 0 0 0 0 0 0 0 0 0 0 0 0 0 0 0 0 0 0 0 0 0 0 0 0 0 0 0 0 0 0 0 0 0 0
0 0 0 0 0 0 0 0 0 0 0 0 0 0 0 0 0 0 0 0 0 0 0 0 0 0 0 0 0 0 0 0 0 0 0 0 0 0 0 0 0 0 0 0 0
0 0 0 0 0 0 0 0 0 0 0 0 0 0 0 0 0 0 0 0 0 0 0 0 0 0 0 0 0 0 0 0 0 0 0 0 0 0 0 0 0 0 0 0 0
0 0 0 0 -1 -2 0 0 0 0 0 0 0 0 0 0 0 0 0 0 0 0 0 0 0 0 0 0 0 0 0 0 0 0 0 0 0 0 0 0 0 0 0 0 0
0 0 0 -5 0 0 0 0 0 -9 0 0 0 0 0 0 0 0 0 0 0 0 0 0 0 0 0 0 0 0 0 0 0 0 0 0 0 0 0 0 0 0 0 0 0
-12 0 0 0 -1 -7 0 -5 -2 0 0 0 0 0 0 0 0 0 0 0 0 0 0 0 0 0 0 0 0 0 0 0 0 0 0 0 0 0 0 0 0 0 0 0 0
-24 -19 -17 -1 -10 -8 -20 -23 -3 -2 0 0 0 0 0 0 0 0 0 0 0 0 0 0 0 0 0 0 0 0 0 0 0 0 0 0 0 0 0 0 0 0 0 0 0
-29 -31 -6 -23 -9 -9 -27 -15 -4 -2 0 0 0 0 0 0 0 0 0 -1 0 0 0 0 0 0 0 0 0 0 0 0 0 0 0 0 0 0 0 0 0 0 0 0 0
-19 -25 -2 -7 -1 -23 -7 0 -12 -2 0 0 0 0 0 0 0 0 0 -1 -1 0 0 0 0 0 0 0 0 0 0 0 0 0 0 0 0 0 0 0 0 0 0 0 0
-33 -12 -10 -6 -19 -2 -7 0 -1 0 0 0 0 0 -17 -52 0 -61 -27 0 -1 0 -2 0 -1 0 0 0 0 0 0 0 0 0 0 0 0 0 0 0 0 0 0 0 0
-5 -27 -7 0 -25 -16 -3 0 0 0 0 0 -3 -24 -5 -17 -24 -46 -39 -33 -27 0 -1 -4 -1 0 0 -8 -19 0 0 0 0 0 0 0 0 0 0 0 0 0 0 0 0
0 -6 -8 -66 -34 -1 -6 0 0 0 0 -24 0 -3 0 -1 -9 -11 -29 -35 -30 -39 -18 -10 -5 0 0 0 -5 0 0 0 0 0 0 0 0 0 0 0 0 0 0 0 0
0 -11 -1 -55 -17 0 0 0 0 0 0 0 0 -17 0 0 0 -9 -19 -30 -36 -67 -71 -22 0 0 0 0 0 0 0 0 0 0 0 0 0 0 0 0 0 0 0 0 0
0 0 -10 -24 -1 -2 -1 0 0 0 -1 0 0 0 0 0 0 -1 -22 -65 0 -5 -51 0 0 0 0 0 0 0 0 0 0 0 0 0 0 0 0 0 0 0 0 0 0
0 0 -11 -3 -1 0 0 0 0 0 0 0 -27 -51 -11 0 0 0 0 0 0 0 0 0 0 -1 -3 0 0 0 0 0 -1 0 0 0 0 0 0 0 0 0 0 0 0
0 0 0 0 -1 0 0 0 0 0 0 -3 -9 -33 -23 -56 -46 0 0 0 0 0 0 0 0 0 0 0 0 0 0 0 0 0 0 0 0 0 0 0 0 0 0 0 0
0 0 -1 -3 0 -1 0 -1 0 0 0 0 -1 -7 -17 -30 -42 -55 0 0 0 0 0 0 0 0 0 0 0 0 0 0 0 0 0 0 0 0 0 0 0 0 0 0 0
0 0 0 0 0 0 0 0 0 0 0 -2 -1 0 -10 -3 0 -1 -5 0 -9 0 0 0 0 0 0 0 0 -2 0 0 0 0 0 0 0 0 0 0 0 0 0 0 0
0 0 -1 0 0 0 0 -5 -2 -3 0 0 0 0 -8 0 -15 0 0 -1 -22 0 0 0 0 0 0 0 0 0 0 0 0 0 0 0 0 0 0 0 0 0 0 0 0
Wind_Speed
28 29 29 29 29 30 31 31 32 32 33 35 36 37 39 40 40 33 31 21 20 24 28 29 26 26 20 17 15 14 17 17 17 15 17 10 10 11 12 8 12 14 10 8 11
30 30 30 30 31 31 31 31 32 33 34 35 37 38 40 40 35 34 20 19 21 25 28 29 30 28 21 19 15 15 17 17 16 16 16 11 10 7 9 7 13 11 10 11 9
31 31 31 32 32 31 32 32 33 33 34 35 37 38 40 36 33 23 17 21 24 26 26 26 24 23 21 19 16 16 17 15 16 14 13 9 9 11 4 9 8 1 6 6 5
33 33 32 32 32 32 32 32 33 34 34 35 36 38 39 28 33 18 24 29 25 26 27 25 23 23 21 20 19 22 20 16 17 14 13 11 10 10 14 13 3 3 4 5 5
32 32 32 32 33 32 32 32 33 33 34 34 35 36 31 32 30 32 30 25 25 25 25 25 25 22 21 20 23 19 20 18 19 15 14 11 14 13 13 5 2 2 3 3 5
32 32 32 32 32 33 32 32 33 34 34 35 34 34 31 42 26 24 25 25 26 27 26 24 23 23 24 20 21 21 23 22 20 17 16 15 14 14 9 1 1 1 3 3 3
28 28 30 30 31 32 33 34 35 35 35 34 34 32 35 36 30 36 37 35 31 30 28 25 24 22 23 23 22 23 27 24 21 21 22 14 15 14 5 4 4 5 4 3 3
27 27 28 28 28 29 31 32 33 33 33 33 32 32 44 32 33 37 31 35 33 27 25 27 25 23 23 24 25 24 26 29 23 20 21 15 15 14 6 6 5 4 4 2 3
27 27 27 25 26 27 29 33 34 34 31 31 32 31 45 32 26 24 20 23 23 21 24 22 20 23 24 25 28 25 28 28 31 20 21 15 22 13 9 9 7 6 6 4 4
29 28 27 27 27 28 30 31 31 30 28 26 30 34 33 34 25 24 19 18 19 18 22 22 22 24 25 23 26 27 26 27 29 22 18 19 19 14 11 11 10 8 7 6 5
29 29 30 30 28 28 29 28 31 30 28 32 30 31 35 27 27 22 23 19 19 21 23 23 22 21 25 24 28 28 28 28 26 28 24 20 17 14 13 12 10 10 9 8 7
29 30 31 30 29 27 28 30 29 27 43 36 42 49 43 37 42 40 28 25 24 25 22 25 24 23 28 27 28 31 34 35 33 32 23 24 18 16 14 16 15 13 11 10 9
28 28 30 32 31 30 31 28 21 26 41 46 41 44 38 34 44 47 37 34 30 27 26 26 27 22 25 27 28 31 31 29 29 25 24 22 26 18 14 17 16 15 15 14 12
30 30 29 31 32 27 29 23 20 21 42 45 37 37 30 30 45 33 29 31 32 32 27 31 29 31 28 29 26 33 26 26 27 26 31 23 37 25 17 18 18 17 16 16 14
29 29 28 26 26 25 25 21 19 22 45 29 28 21 20 20 28 25 19 24 30 26 24 29 25 25 30 29 24 29 25 24 25 26 29 29 32 31 25 24 21 20 19 18 16
29 27 22 18 21 19 20 17 19 33 45 31 25 24 22 24 25 25 17 17 25 28 30 32 26 22 24 24 23 25 24 23 25 26 36 28 29 37 27 24 24 20 20 19 17
29 27 22 21 28 21 17 17 37 44 29 37 36 31 30 29 28 27 22 20 21 27 33 32 33 30 25 27 24 21 20 27 31 31 36 23 28 34 24 21 21 20 19 17 16
30 29 26 24 21 17 17 29 47 45 38 27 30 29 34 28 29 26 26 28 29 26 27 33 36 30 24 25 24 24 22 27 33 34 35 26 34 32 27 28 27 21 18 15 14
29 29 30 26 21 20 26 41 42 39 35 41 35 34 37 35 33 29 32 33 30 30 33 32 34 25 24 27 24 27 31 27 30 30 35 30 31 30 28 27 23 17 13 13 13
30 31 36 24 20 24 34 42 38 37 34 32 43 37 41 37 35 33 33 31 35 28 32 31 39 28 26 22 24 28 24 30 27 35 39 35 35 33 26 24 20 16 13 10 10
27 33 30 20 21 32 47 42 42 37 33 32 32 31 36 36 34 35 34 32 28 28 26 29 33 31 27 30 27 24 29 25 28 30 34 37 34 26 26 20 17 15 8 7 10
26 37 26 17 35 33 45 41 36 38 29 32 31 31 31 30 32 34 38 33 25 24 31 29 29 40 40 26 22 22 28 28 35 34 33 36 38 26 19 14 10 7 5 6 7
29 32 26 24 41 43 38 46 42 42 37 34 36 33 29 31 33 35 34 29 26 25 27 22 30 37 34 32 30 35 35 33 32 30 34 36 38 27 16 12 11 9 8 9 10
26 33 32 32 32 36 39 45 46 45 43 37 38 34 36 34 29 29 29 25 24 24 22 19 27 32 38 30 26 32 34 32 32 38 36 35 31 25 18 15 13 13 11 12 14
26 33 28 32 42 40 43 37 43 49 39 35 44 42 37 38 34 33 30 29 26 22 20 21 32 31 32 33 34 35 35 32 33 34 36 36 32 26 18 16 15 15 16 16 18
30 32 29 37 33 36 37 42 45 51 40 39 42 43 41 42 36 36 31 29 30 24 25 24 34 30 40 33 30 34 36 38 32 31 32 31 31 24 19 19 19 18 18 21 19
26 25 31 37 40 39 37 36 36 45 42 41 41 42 43 44 33 38 34 30 27 28 28 28 29 29 39 30 29 38 35 32 31 29 28 37 33 23 21 18 18 18 21 20 18
Wind_Direction
295 296 297 299 300 302 303 306 308 311 313 314 316 317 317 317 313 324 319 332 335 329 326 324 329 324 330 326 328 331 318 312 311 311 314 317 309 318 328 339 335 337 3 58 88
293 294 295 297 298 300 302 304 306 309 311 313 314 315 316 317 320 317 331 335 333 329 327 325 321 321 320 319 320 316 311 311 315 316 316 316 314 319 320 328 330 352 35 80 77
291 292 293 294 296 298 300 302 304 306 309 311 313 313 314 318 315 319 333 333 327 327 328 324 324 325 318 317 313 315 304 310 312 321 318 313 316 315 311 308 314 30 87 68 42
288 289 290 292 293 295 297 300 301 304 307 310 312 314 311 319 301 325 324 320 320 323 321 322 319 314 312 308 310 305 305 304 303 311 315 307 313 306 308 316 335 73 69 54 43
288 289 290 291 292 294 296 297 299 302 305 308 311 314 315 303 301 308 312 317 317 319 318 316 312 310 306 308 304 300 304 304 299 302 305 312 304 302 305 337 70 71 11 10 11
287 288 289 290 291 292 293 295 297 299 301 305 310 313 306 293 313 315 316 314 308 310 311 312 308 308 303 302 298 300 296 301 299 298 299 296 299 301 304 315 294 272 311 335 7
296 294 293 292 291 291 292 293 294 296 299 303 307 308 297 293 305 301 299 295 298 297 298 300 305 308 302 296 297 296 289 294 295 294 293 296 291 291 258 252 260 277 288 308 333
300 299 298 297 296 296 296 295 295 295 297 300 304 303 289 302 300 297 299 294 289 290 292 295 298 299 295 293 294 292 290 286 291 287 290 286 278 290 232 208 231 247 262 278 324
296 298 300 302 303 301 301 298 294 292 294 296 298 297 291 300 299 305 306 308 312 292 290 293 299 292 289 285 284 284 285 286 285 288 286 276 289 277 237 233 229 236 259 279 307
288 291 293 297 301 303 303 304 297 295 292 293 289 292 292 291 299 302 312 312 310 308 295 288 289 283 281 277 276 279 284 286 286 296 289 278 276 282 227 223 226 247 259 267 277
287 287 286 289 291 299 304 302 299 292 287 277 286 283 286 296 299 298 309 306 304 298 287 286 278 273 277 274 275 281 285 287 289 289 292 285 268 254 225 240 242 243 248 260 270
287 287 285 287 288 292 297 293 291 296 284 283 279 276 277 283 279 275 298 292 290 284 288 282 271 277 279 278 275 277 280 281 285 284 290 290 282 266 228 218 227 230 239 253 268
290 292 286 284 286 285 288 288 298 300 285 281 280 279 276 271 272 273 280 280 279 276 277 271 283 278 274 277 275 276 277 283 283 288 291 292 286 278 258 263 266 255 258 265 263
285 288 289 287 285 281 284 286 293 301 284 280 285 285 280 275 277 273 260 263 268 269 273 278 272 273 277 277 273 275 279 279 282 282 279 286 281 280 267 243 252 247 246 257 260
284 286 289 284 288 278 287 286 286 294 276 286 283 300 295 274 293 295 263 248 250 261 265 274 279 272 266 268 271 280 278 277 278 279 283 279 284 284 278 271 257 256 251 251 250
283 285 287 283 288 290 304 291 275 272 268 278 283 280 284 280 287 296 291 268 260 265 265 270 280 282 281 274 268 281 279 279 281 281 277 279 279 284 275 273 275 265 261 259 250
280 280 277 280 279 289 289 283 266 262 271 274 271 270 271 277 282 282 282 252 261 257 262 269 269 273 277 278 274 277 273 274 277 274 277 281 278 277 291 288 287 280 269 262 249
280 277 274 274 281 289 283 265 263 264 259 279 279 269 265 271 276 274 276 269 255 268 276 265 272 263 266 258 269 268 265 270 275 278 282 280 279 284 295 296 294 287 275 265 248
282 275 271 270 270 277 267 260 263 268 275 270 272 268 263 268 272 272 267 270 267 251 266 272 271 283 272 261 258 269 265 272 279 285 286 283 288 292 298 301 305 296 277 262 237
275 273 266 268 264 265 260 260 263 270 279 282 264 266 264 263 263 267 270 275 267 265 253 273 272 273 275 285 263 255 271 271 273 274 278 284 284 285 297 299 302 295 282 262 223
273 270 272 259 260 258 254 259 263 266 274 277 276 273 267 266 269 264 269 275 277 269 263 262 269 277 274 270 270 269 260 274 273 275 277 283 289 296 287 290 290 288 271 211 200
272 263 274 253 253 261 254 255 264 263 269 271 276 276 275 272 272 270 264 269 281 276 268 262 274 268 269 279 277 276 276 261 271 276 275 283 284 306 297 286 285 270 240 221 232
269 267 271 259 254 255 264 259 259 261 261 266 267 272 279 273 275 271 271 278 276 276 277 276 271 270 275 275 276 272 270 276 270 279 275 276 285 296 295 282 275 269 263 267 272
272 266 264 261 263 259 260 259 259 262 260 264 266 268 271 272 275 278 271 283 288 280 277 288 273 270 270 282 285 278 273 268 266 271 275 276 285 294 281 275 275 278 275 275 280
265 265 266 262 257 261 260 269 258 259 261 258 260 260 263 267 271 269 275 276 282 289 270 267 275 280 283 284 283 280 280 280 266 266 272 280 280 285 273 268 270 280 284 290 293
259 262 266 262 269 265 259 260 260 260 261 260 259 259 260 262 266 268 276 275 274 277 274 277 277 276 277 285 288 280 278 277 280 280 277 282 283 289 280 281 281 282 283 289 295
263 270 266 263 259 262 264 262 264 264 264 262 260 260 260 259 265 270 277 277 277 275 276 277 276 277 278 278 282 280 279 276 275 277 280 280 284 285 288 279 275 275 283 285 292